Location: Kunchanapalle
(16.4623°N, 80.6176°E)
Time: 17:46:03
(UTC+00:00)

Delta 142 - Pass Details

Date: 13 August 2020
Orbit: 549 x 1589 km, 28.4° (Epoch: 17 September)

Event Time Altitude Azimuth Distance (km) Brightness Sun altitude
Exits shadow 23:02:34 47° 247° (WSW) 727 3.4 -18.8°
Maximum altitude 23:03:18 55° 207° (SSW) 662 3.4 -18.6°
Drops below altitude 10° 23:07:27 10° 129° (SE) 1,893 6.4 -17.7°
Sets 23:09:54 0° 125° (SE) 2,881 7.5 -17.1°
